Location: Alvediston
(51.0078°N, 2.0364°W)
Time: 16:53:48
(UTC+00:00)

Cosmos 468 Rocket - Pass Details

Date: 27 February 2020
Orbit: 744 x 780 km, 74.0° (Epoch: 29 March)

Event Time Altitude Azimuth Distance (km) Brightness Sun altitude
Rises 18:40:25 0° 180° (S) 3,237 7.3 -9.5°
Reaches altitude 10° 18:42:53 10° 174° (S) 2,319 6.4 -9.9°
Maximum altitude 18:47:49 42° 105° (ESE) 1,111 4.4 -10.7°
Drops below altitude 10° 18:52:47 10° 36° (NE) 2,345 6.2 -11.5°
Sets 18:55:17 0° 29° (NNE) 3,277 7.0 -11.9°
